Location: Dal�� Lhota
(48.7500°N, 14.0167°E)
Time: 00:15:54
(UTC+00:00)

Vanguard 3 - Pass Details

Date: 07 August 2021
Orbit: 510 x 3260 km, 33.3° (Epoch: 16 September)

Event Time Altitude Azimuth Distance (km) Brightness Sun altitude
Rises 21:37:54 0° 273° (W) 6,650 12.2 -22.0°
Reaches altitude 10° 21:43:47 10° 260° (W) 5,933 11.7 -22.3°
Maximum altitude 21:55:51 21° 221° (SW) 5,282 11.0 -23.1°
Enters shadow 22:02:31 17° 197° (SSW) 5,495 10.9 -23.4°
Drops below altitude 10° 22:08:06 10° 181° (S) 5,958 - -23.7°
Sets 22:14:09 0° 167° (SSE) 6,676 - -23.9°
